Theta_e
322 322 321 322 322 322 323 322 322 321 320 320 320 320 320 320 321 321 321 315 319 323 326 328 330 331 331 332 332 333 333 333 334 332 331 331 331 331 330 330 329 329 328
323 323 322 323 323 323 322 322 321 321 320 319 319 319 319 319 319 319 319 320 317 319 322 326 328 329 329 329 330 330 331 331 331 331 330 330 329 329 329 329 329 330 330
322 323 323 323 324 323 322 321 320 320 319 318 318 318 319 320 319 318 318 318 318 316 318 322 324 323 324 325 326 326 327 328 327 326 325 325 325 326 326 326 326 327 328
323 323 322 322 323 322 322 321 320 319 318 318 319 320 321 320 318 317 317 317 317 317 316 318 318 318 321 323 323 322 323 322 321 321 320 321 322 322 322 323 323 325 325
324 323 323 323 322 321 319 319 317 317 318 320 319 321 321 320 317 315 316 316 316 316 315 314 312 312 315 317 319 320 320 320 319 318 317 317 318 318 317 318 318 319 321
326 324 324 323 321 320 320 319 320 317 318 320 317 318 319 317 316 316 315 314 314 313 311 313 310 311 311 314 317 318 318 317 316 314 314 314 314 314 314 314 314 316 316
327 325 325 324 322 320 320 319 318 317 316 318 319 318 315 314 314 314 315 313 312 309 308 310 308 309 308 311 313 311 312 312 310 309 309 310 310 310 311 311 312 313 313
328 327 326 324 323 321 320 319 318 317 318 318 316 313 310 312 313 312 313 308 308 304 305 305 306 306 306 305 302 304 306 308 309 309 308 308 308 309 310 310 310 311 311
329 328 328 328 325 323 322 320 319 318 316 314 314 314 310 306 308 309 310 306 304 301 303 304 302 303 301 299 298 299 301 303 305 306 306 306 306 307 308 309 309 309 310
328 327 327 328 326 324 322 320 319 318 317 313 312 312 312 311 303 300 306 304 301 298 300 300 302 299 296 295 296 295 297 299 300 301 302 303 304 305 306 306 307 308 308
324 324 325 324 321 319 318 317 316 315 315 314 312 309 307 304 305 301 296 298 297 297 299 298 298 296 294 294 294 294 295 296 296 297 298 299 301 302 303 304 305 305 306
313 313 314 314 313 312 310 308 307 307 307 305 304 304 303 300 299 296 294 293 291 295 296 298 295 293 293 293 292 292 293 294 295 296 296 297 298 299 301 302 303 303 304
309 307 307 306 305 304 302 301 300 299 299 298 297 295 296 295 296 295 293 290 290 292 295 297 293 292 291 292 291 292 291 292 294 295 295 295 296 297 297 299 300 300 300
305 302 300 300 298 297 296 296 295 294 293 293 293 293 292 292 292 292 291 289 287 288 291 290 293 291 290 291 291 291 291 291 293 293 294 294 295 295 296 296 297 298 298
299 297 297 295 294 293 293 292 292 291 291 291 291 291 290 290 290 290 290 290 288 285 285 289 288 290 290 290 290 290 289 289 291 292 292 293 294 294 294 296 297 298 299
295 294 293 292 291 291 291 291 290 289 289 289 289 288 288 288 288 289 288 288 288 286 283 288 287 288 289 288 289 289 288 289 289 289 291 292 292 293 293 295 297 298 298
293 292 291 290 289 289 289 289 288 288 287 287 287 287 286 287 287 287 287 287 286 286 283 285 287 288 287 287 287 289 289 288 288 288 290 290 291 292 293 295 295 295 295
292 290 290 289 288 288 288 288 287 287 286 286 285 285 285 285 285 286 286 285 285 286 284 282 285 285 285 287 287 287 287 286 287 287 289 289 290 290 291 293 293 293 293
289 288 288 287 287 287 287 287 286 286 285 285 285 284 284 285 284 285 285 285 285 285 285 283 283 285 286 287 286 286 286 286 285 285 287 287 288 288 289 292 291 291 290
288 287 287 286 286 286 286 286 285 285 284 284 284 285 285 284 284 285 284 285 285 285 284 284 283 284 285 286 286 284 282 284 283 284 284 285 285 285 287 289 290 289 289
286 286 285 285 285 286 285 285 285 284 284 283 284 284 285 285 285 286 285 285 285 284 284 283 283 283 283 283 282 283 281 282 282 282 282 284 284 284 283 285 287 288 289
285 285 284 284 284 285 288 287 285 284 284 283 283 284 284 284 285 285 285 286 286 284 283 283 283 281 281 283 284 281 280 278 277 283 279 281 283 282 282 283 286 287 287
284 283 283 283 284 286 289 288 286 284 284 284 283 283 283 283 284 284 285 285 285 286 287 286 282 282 282 284 282 279 279 277 277 279 278 278 281 281 282 281 285 285 285
283 282 282 283 284 285 289 288 286 284 284 284 284 284 284 284 284 284 284 284 284 284 285 285 285 285 285 285 283 280 277 275 276 277 278 275 279 280 282 280 282 282 282
282 282 282 282 283 284 288 288 286 284 283 283 284 284 284 284 284 285 284 281 282 283 286 287 287 286 285 284 283 279 277 274 275 276 278 275 277 278 280 278 278 279 280
282 282 282 282 282 283 288 288 287 284 283 283 283 283 282 283 285 285 283 283 282 283 281 284 284 283 280 279 280 278 277 274 273 273 277 275 275 277 276 278 277 275 276
Wind_Speed
3 3 3 2 2 2 2 2 2 2 3 3 3 4 4 4 5 3 3 6 9 11 12 14 14 15 16 17 18 19 20 20 19 18 18 17 16 20 21 23 23 24 23
3 3 3 2 2 1 2 1 1 2 2 2 3 4 4 4 4 4 4 5 9 11 12 14 15 16 16 17 17 18 19 20 21 21 21 20 20 19 19 20 22 24 27
4 3 2 2 2 2 2 1 0 1 2 2 3 3 4 4 4 5 4 4 5 8 12 14 16 17 17 17 17 18 18 20 21 22 23 23 23 23 23 23 24 24 24
6 4 3 3 3 2 1 0 1 1 2 3 3 4 3 3 4 4 4 4 5 5 7 13 15 18 18 18 19 19 18 19 21 21 23 24 24 24 24 25 26 26 25
6 5 4 3 4 3 2 2 1 1 1 3 5 5 4 3 4 2 6 7 7 7 6 9 12 13 19 20 20 19 20 21 22 23 23 25 25 26 26 27 27 28 28
7 4 4 4 3 2 2 2 2 1 1 2 3 5 4 3 3 4 5 5 7 8 9 9 9 9 18 20 20 21 23 23 24 24 25 25 26 26 27 29 29 29 30
7 6 4 5 4 3 3 3 1 1 0 2 3 3 2 3 4 4 4 5 7 9 11 9 7 8 8 18 22 24 25 25 26 25 25 25 26 27 28 29 29 30 32
7 6 6 5 5 3 3 3 3 2 1 2 1 1 2 2 2 5 5 6 7 8 9 9 11 11 9 8 15 22 26 26 26 26 27 27 27 28 29 29 29 29 30
8 6 5 5 5 4 3 4 4 4 2 2 2 0 1 2 3 2 3 5 7 7 7 8 10 11 11 10 13 17 29 29 29 28 29 30 30 30 31 32 32 32 32
5 5 5 5 4 3 4 3 3 2 2 3 2 2 4 1 1 4 1 3 8 8 8 7 7 10 12 11 17 24 28 28 29 30 32 32 32 33 33 34 34 34 34
4 4 5 5 5 3 4 5 4 4 2 3 2 2 2 2 1 2 4 4 5 6 6 6 8 9 13 13 13 17 26 27 28 28 28 28 29 31 32 31 33 33 34
4 4 6 5 5 5 5 4 5 6 5 6 5 4 3 2 2 1 2 2 3 4 4 6 8 9 11 12 14 20 24 26 27 27 27 29 30 31 32 34 34 34 34
4 6 6 6 4 6 6 6 7 6 6 6 6 5 5 4 2 1 0 1 2 2 2 4 6 8 11 9 10 16 19 24 25 26 27 27 28 29 30 31 33 34 34
6 7 7 7 7 8 8 7 6 6 7 6 8 6 6 4 4 2 2 1 1 2 2 4 3 7 9 9 11 17 14 22 24 24 25 26 27 29 30 32 34 34 33
8 9 8 9 8 9 8 8 6 7 7 6 6 7 6 5 4 4 3 3 2 3 2 1 4 8 9 9 11 13 14 19 22 23 24 26 28 28 31 32 33 32 30
11 11 9 10 10 9 8 8 7 7 8 5 5 7 6 5 5 5 4 4 3 1 2 1 3 10 10 9 11 12 13 16 20 23 24 25 25 26 25 30 34 32 30
12 12 10 11 10 10 8 8 7 8 9 7 6 7 7 6 5 5 4 4 4 3 3 3 7 9 12 11 10 11 10 11 11 19 22 22 23 22 23 25 29 30 31
9 12 10 10 9 8 7 8 9 7 8 8 7 7 7 5 6 5 4 5 4 3 4 9 9 8 10 11 10 11 8 9 10 15 21 19 22 19 22 24 25 26 27
13 11 10 11 10 8 8 7 8 8 8 7 7 7 7 7 6 4 4 3 3 3 4 4 6 7 7 8 9 9 9 9 8 15 17 17 18 19 22 22 23 24 25
15 12 9 10 9 8 8 8 8 8 8 6 7 7 7 7 6 4 3 2 2 3 4 5 6 6 6 8 8 8 9 9 9 6 10 11 13 14 21 23 22 22 25
11 11 11 8 8 8 6 8 8 8 8 8 7 6 6 6 6 3 2 2 3 2 4 5 6 7 7 8 9 7 8 8 8 3 8 7 5 6 8 15 16 24 24
11 11 10 10 9 5 14 13 10 7 7 7 7 6 5 5 4 3 3 4 3 3 4 3 5 8 9 8 6 7 7 8 6 2 8 8 4 5 6 8 17 20 23
11 10 10 9 9 8 16 15 14 6 7 6 6 6 5 3 4 3 2 0 1 7 8 4 5 7 8 6 4 4 6 5 5 7 8 5 3 6 4 6 17 19 20
10 10 9 8 9 7 16 15 13 6 5 5 6 6 5 5 4 4 3 3 3 2 4 3 3 6 5 4 3 2 3 5 7 3 4 4 3 6 2 4 14 16 18
8 8 8 9 10 8 17 15 12 6 5 5 5 5 5 5 5 4 3 4 3 3 5 7 7 9 9 8 5 1 3 4 3 2 1 3 3 6 3 2 5 15 15
9 8 8 7 8 9 15 15 12 5 6 4 3 4 7 6 7 6 3 4 4 6 4 5 4 4 3 6 6 3 2 3 2 3 0 5 3 4 5 0 3 6 7
Wind_Direction
138 133 125 127 121 112 83 79 61 49 41 21 14 355 351 342 345 345 337 343 343 347 349 346 344 342 341 342 338 334 337 336 341 339 336 330 314 295 286 281 276 272 270
156 154 152 158 146 137 122 98 39 20 14 343 342 339 329 327 334 340 350 348 352 2 8 13 13 10 3 356 356 353 347 345 346 346 347 345 341 333 327 324 312 300 277
170 173 177 179 170 158 147 137 61 326 328 329 329 326 319 333 349 1 6 15 14 24 24 25 23 17 8 2 358 354 352 354 351 351 348 345 342 341 338 334 328 325 318
178 178 185 202 185 179 178 204 290 339 332 323 327 321 324 344 11 32 40 38 34 36 37 29 24 18 15 12 5 1 356 355 354 349 348 344 344 340 337 335 330 326 321
183 173 202 202 186 185 191 196 189 201 313 333 331 323 334 357 26 72 42 59 51 38 30 27 19 23 19 13 12 8 6 3 359 356 351 347 343 339 334 329 326 320 316
194 203 189 197 189 180 199 192 218 226 280 321 331 320 338 50 88 40 56 67 43 43 24 27 14 20 20 23 20 20 12 6 2 355 348 344 339 335 331 328 324 320 319
193 203 192 192 184 190 205 187 163 144 133 335 346 341 35 49 116 49 81 62 44 25 19 19 18 19 17 32 31 21 11 3 356 350 346 342 338 335 331 327 324 320 316
193 203 202 184 191 185 194 184 183 160 116 44 52 229 345 1 343 49 52 38 42 9 15 13 26 29 38 37 25 16 5 359 358 355 351 346 342 338 333 329 324 322 319
203 189 188 193 190 187 192 185 182 187 167 87 103 162 321 317 322 20 58 41 18 3 14 15 36 44 41 29 18 11 4 2 358 354 350 346 342 340 336 333 329 326 323
176 173 178 184 168 162 167 163 165 158 137 137 114 53 41 68 219 314 14 41 0 357 3 21 49 51 37 22 17 10 3 359 355 353 349 346 342 338 335 331 331 326 322
131 138 139 135 125 118 122 128 117 107 121 144 131 137 111 76 147 220 271 324 354 341 9 38 52 43 28 20 14 3 358 354 351 346 343 341 339 337 333 330 325 322 320
119 107 105 111 112 110 105 103 106 107 109 100 100 118 133 138 168 191 259 295 310 308 9 53 48 39 23 16 5 354 348 347 345 342 343 343 340 337 333 331 328 324 323
163 143 130 123 114 116 108 117 109 106 108 114 114 97 89 84 97 143 169 353 316 309 346 77 56 40 22 4 354 345 341 344 341 342 343 341 339 337 336 333 330 326 324
146 131 120 122 123 120 121 116 105 109 105 101 111 103 103 91 77 76 99 31 348 330 314 3 73 29 5 352 340 340 341 341 340 342 344 345 344 344 342 339 336 331 327
136 131 135 132 127 118 120 123 120 115 110 109 106 112 105 92 84 82 86 76 55 354 294 21 353 6 347 344 344 344 338 333 338 347 347 347 350 349 348 345 339 332 330
138 135 139 133 120 124 126 120 112 114 112 107 114 111 103 96 96 87 86 88 81 105 280 331 342 332 341 343 347 340 334 331 342 350 347 351 352 354 356 360 7 15 10
145 137 144 133 135 136 135 125 122 129 122 118 110 110 101 112 100 90 87 90 74 43 329 322 331 337 347 345 345 343 340 348 339 345 348 351 355 2 360 4 17 15 15
144 137 139 130 131 134 134 135 134 135 131 125 124 117 118 112 98 96 86 71 65 48 2 335 335 348 343 338 342 343 341 342 333 342 349 354 3 9 13 18 22 18 15
140 127 133 142 142 146 139 132 133 132 122 131 143 128 136 122 111 106 97 74 49 24 5 332 327 321 329 339 343 347 343 337 338 335 349 353 6 11 9 10 17 14 14
136 134 143 143 142 139 136 133 138 130 125 135 133 140 136 134 123 104 103 82 43 10 348 332 324 332 340 339 341 339 336 341 333 336 340 340 358 11 11 9 11 15 14
134 135 136 132 130 137 141 145 139 142 147 145 143 150 142 134 125 117 115 81 36 1 339 324 332 337 340 335 337 336 329 331 331 16 336 341 348 6 4 5 9 13 17
130 133 138 144 143 140 153 153 144 149 154 153 158 162 152 140 156 119 74 34 21 336 307 315 329 325 323 305 323 336 336 350 332 26 339 324 355 11 7 354 13 14 13
143 145 146 146 145 149 155 157 158 154 158 166 162 157 157 165 174 177 209 306 344 310 305 304 316 310 300 314 319 316 329 326 289 321 330 303 332 349 10 356 11 12 12
152 151 151 155 150 160 162 159 159 156 163 164 178 166 166 174 197 199 213 225 234 279 289 261 270 278 272 279 275 304 311 302 286 260 349 291 327 323 345 18 10 12 14
151 159 159 159 160 164 170 168 162 161 167 182 175 178 184 195 218 259 228 240 255 266 291 280 297 315 317 323 295 208 312 326 306 277 39 302 309 313 303 1 8 16 14
156 155 154 167 163 161 178 182 173 164 176 189 191 206 212 212 227 251 228 250 271 268 258 247 260 277 315 307 285 207 204 260 276 283 153 326 307 343 317 244 15 17 8